Location: Saint-Maurice-d�Ard�che
(44.5216°N, 4.4002°E)
Time: 19:00:09
(UTC+00:00)

Cosmos 1953 - Pass Details

Date: 30 March 2020
Orbit: 539 x 557 km, 82.5° (Epoch: 31 May)

Event Time Altitude Azimuth Distance (km) Brightness Sun altitude
Exits shadow 20:20:49 18° 212° (SSW) 1,355 4.3 -23.1°
Maximum altitude 20:23:30 49° 282° (WNW) 704 3.1 -23.5°
Drops below altitude 10° 20:27:23 10° 358° (N) 1,816 5.4 -24.0°
Sets 20:29:37 0° 4° (N) 2,716 6.3 -24.4°
